When you browse on this site, cookies collect data to enhance your experience and personalize the content and advertising you see.
Visit our Privacy Policy to learn more. By continuing to use the site, you agree to this use of cookies and data.
  • In France
  • List of Countries
  • For 7 days
  • Water Temperature
  • Satellite Maps
  • Weather Map
  • Weather Widgets
  • user-avatar
    Login

    Hourly Weather Herāt

    Today, 25 April, Thursday

    Time Temperature Precipitation Wind Pressure Humidity
    00:00 +6°C° 0 mm 7 mps 683 mmHg 59%
    01:00 +5°C° 0 mm 6 mps 683 mmHg 59%
    02:00 +5°C° 0 mm 6 mps 683 mmHg 60%
    03:00 +5°C° 0 mm 6 mps 683 mmHg 62%
    04:00 +5°C° 0 mm 6 mps 683 mmHg 63%
    05:00 +5°C° 0 mm 6 mps 683 mmHg 60%
    06:00 +5°C° 0 mm 6 mps 683 mmHg 58%
    07:00 +7°C° 0 mm 6 mps 684 mmHg 56%
    08:00 +9°C° 0 mm 5 mps 684 mmHg 50%
    09:00 +10°C° 0 mm 5 mps 684 mmHg 43%
    10:00 +13°C° 0 mm 5 mps 684 mmHg 37%
    11:00 +14°C° 0 mm 5 mps 684 mmHg 35%
    12:00 +15°C° 0 mm 5 mps 684 mmHg 34%
    13:00 +16°C° 0 mm 5 mps 684 mmHg 32%
    14:00 +16°C° 0 mm 5 mps 683 mmHg 33%
    15:00 +16°C° 0 mm 5 mps 683 mmHg 34%
    16:00 +16°C° 0 mm 5 mps 683 mmHg 35%
    17:00 +15°C° 0 mm 6 mps 683 mmHg 40%
    18:00 +14°C° 0 mm 6 mps 683 mmHg 45%
    19:00 +13°C° 0 mm 6 mps 683 mmHg 51%
    20:00 +11°C° 0 mm 6 mps 683 mmHg 51%
    21:00 +11°C° 0 mm 6 mps 683 mmHg 52%
    22:00 +10°C° 0 mm 6 mps 684 mmHg 53%
    23:00 +10°C° 0 mm 6 mps 683 mmHg 53%

    Tomorrow, 26 April, Friday

    Time Temperature Precipitation Wind Pressure Humidity
    00:00 +9°C° 0 mm 5 mps 683 mmHg 54%
    01:00 +9°C° 0 mm 5 mps 683 mmHg 55%
    02:00 +8°C° 0 mm 5 mps 683 mmHg 55%
    03:00 +8°C° 0 mm 5 mps 683 mmHg 55%
    04:00 +8°C° 0 mm 5 mps 682 mmHg 55%
    05:00 +8°C° 0 mm 5 mps 683 mmHg 51%
    06:00 +9°C° 0 mm 5 mps 683 mmHg 48%
    07:00 +10°C° 0 mm 6 mps 683 mmHg 44%
    08:00 +11°C° 0 mm 6 mps 683 mmHg 39%
    09:00 +14°C° 0 mm 6 mps 684 mmHg 34%
    10:00 +16°C° 0 mm 6 mps 684 mmHg 29%
    11:00 +16°C° 0 mm 6 mps 684 mmHg 27%
    12:00 +17°C° 0 mm 6 mps 683 mmHg 26%
    13:00 +19°C° 0 mm 6 mps 683 mmHg 25%
    14:00 +19°C° 0 mm 6 mps 683 mmHg 26%
    15:00 +19°C° 0 mm 6 mps 683 mmHg 28%
    16:00 +18°C° 0 mm 7 mps 682 mmHg 29%
    17:00 +17°C° 0 mm 7 mps 682 mmHg 33%
    18:00 +16°C° 0 mm 7 mps 682 mmHg 37%
    19:00 +14°C° 0 mm 6 mps 682 mmHg 41%
    20:00 +14°C° 0 mm 6 mps 683 mmHg 41%
    21:00 +13°C° 0 mm 6 mps 683 mmHg 42%
    22:00 +13°C° 0 mm 5 mps 683 mmHg 42%
    23:00 +12°C° 0 mm 5 mps 683 mmHg 42%

    Day after tomorrow, 27 April, Saturday

    Time Temperature Precipitation Wind Pressure Humidity
    00:00 +12°C° 0 mm 4 mps 683 mmHg 43%
    01:00 +11°C° 0 mm 4 mps 682 mmHg 43%
    02:00 +11°C° 0 mm 3 mps 682 mmHg 43%
    03:00 +10°C° 0 mm 3 mps 682 mmHg 44%
    04:00 +10°C° 0 mm 3 mps 682 mmHg 44%
    05:00 +11°C° 0 mm 3 mps 683 mmHg 42%
    06:00 +11°C° 0 mm 3 mps 683 mmHg 39%
    07:00 +12°C° 0 mm 3 mps 683 mmHg 37%
    08:00 +14°C° 0 mm 4 mps 684 mmHg 34%
    09:00 +17°C° 0 mm 4 mps 684 mmHg 30%
    10:00 +18°C° 0 mm 4 mps 684 mmHg 27%
    11:00 +19°C° 0 mm 4 mps 684 mmHg 26%
    12:00 +20°C° 0 mm 4 mps 684 mmHg 24%
    13:00 +21°C° 0 mm 4 mps 683 mmHg 23%
    14:00 +21°C° 0 mm 4 mps 683 mmHg 24%
    15:00 +21°C° 0 mm 5 mps 683 mmHg 25%
    16:00 +21°C° 0 mm 5 mps 682 mmHg 26%
    17:00 +20°C° 0 mm 5 mps 682 mmHg 30%
    18:00 +19°C° 0 mm 5 mps 682 mmHg 34%
    19:00 +17°C° 0 mm 5 mps 682 mmHg 38%
    20:00 +17°C° 0 mm 4 mps 682 mmHg 40%
    21:00 +15°C° 0 mm 4 mps 683 mmHg 42%
    22:00 +16°C° 0 mm 3 mps 683 mmHg 45%
    23:00 +14°C° 0 mm 3 mps 682 mmHg 46%

    28 April, Sunday

    Time Temperature Precipitation Wind Pressure Humidity
    00:00 +13°C° 0 mm 3 mps 682 mmHg 47%
    01:00 +14°C° 0 mm 2 mps 681 mmHg 48%
    02:00 +14°C° 0 mm 2 mps 681 mmHg 48%
    03:00 +13°C° 0 mm 2 mps 681 mmHg 48%
    04:00 +13°C° 0 mm 2 mps 681 mmHg 48%
    05:00 +14°C° 0 mm 2 mps 681 mmHg 45%
    06:00 +15°C° 0 mm 2 mps 681 mmHg 42%
    07:00 +15°C° 0 mm 2 mps 682 mmHg 38%
    08:00 +17°C° 0 mm 2 mps 682 mmHg 33%
    09:00 +20°C° 0 mm 1 mps 682 mmHg 28%
    10:00 +21°C° 0 mm 1 mps 682 mmHg 23%
    11:00 +21°C° 0 mm 2 mps 682 mmHg 22%
    12:00 +23°C° 0 mm 2 mps 682 mmHg 20%
    13:00 +24°C° 0 mm 2 mps 681 mmHg 18%
    14:00 +25°C° 0 mm 2 mps 681 mmHg 18%
    15:00 +25°C° 0 mm 2 mps 680 mmHg 18%
    16:00 +25°C° 0 mm 2 mps 680 mmHg 19%
    17:00 +24°C° 0 mm 2 mps 680 mmHg 23%
    18:00 +23°C° 0 mm 2 mps 680 mmHg 27%
    19:00 +20°C° 0 mm 2 mps 679 mmHg 31%
    20:00 +20°C° 0 mm 2 mps 679 mmHg 33%
    21:00 +19°C° 0 mm 2 mps 679 mmHg 35%
    22:00 +18°C° 0 mm 2 mps 679 mmHg 37%
    23:00 +18°C° 0 mm 2 mps 679 mmHg 37%

    29 April, Monday

    Time Temperature Precipitation Wind Pressure Humidity
    00:00 +17°C° 0 mm 2 mps 678 mmHg 37%
    01:00 +17°C° 0 mm 2 mps 678 mmHg 36%
    02:00 +17°C° 0 mm 2 mps 677 mmHg 35%
    03:00 +17°C° 0 mm 2 mps 677 mmHg 34%
    04:00 +16°C° 0 mm 2 mps 677 mmHg 32%
    05:00 +17°C° 0 mm 2 mps 677 mmHg 31%
    06:00 +18°C° 0 mm 2 mps 677 mmHg 29%
    07:00 +19°C° 0 mm 2 mps 678 mmHg 27%
    08:00 +20°C° 0 mm 2 mps 678 mmHg 26%
    09:00 +21°C° 0 mm 3 mps 679 mmHg 24%
    10:00 +22°C° 0 mm 3 mps 679 mmHg 23%
    11:00 +23°C° 0 mm 4 mps 679 mmHg 24%
    12:00 +23°C° 0 mm 5 mps 679 mmHg 26%
    13:00 +23°C° 0 mm 7 mps 678 mmHg 27%
    14:00 +22°C° 0 mm 6 mps 678 mmHg 30%
    15:00 +22°C° 0 mm 5 mps 678 mmHg 33%
    16:00 +21°C° 0 mm 4 mps 678 mmHg 35%
    17:00 +20°C° 0 mm 4 mps 678 mmHg 38%
    18:00 +20°C° 0 mm 4 mps 678 mmHg 40%
    19:00 +19°C° 0 mm 3 mps 678 mmHg 43%
    20:00 +18°C° 0 mm 3 mps 678 mmHg 46%
    21:00 +17°C° 0 mm 3 mps 678 mmHg 49%
    22:00 +17°C° 0 mm 3 mps 678 mmHg 52%
    23:00 +16°C° 0 mm 2 mps 678 mmHg 51%

    30 April, Tuesday

    Time Temperature Precipitation Wind Pressure Humidity
    00:00 +16°C° 0 mm 2 mps 678 mmHg 51%
    01:00 +15°C° 0 mm 2 mps 678 mmHg 51%
    02:00 +15°C° 0 mm 2 mps 678 mmHg 51%
    03:00 +14°C° 0 mm 2 mps 678 mmHg 51%
    04:00 +14°C° 0 mm 2 mps 678 mmHg 52%
    05:00 +15°C° 0 mm 2 mps 678 mmHg 49%
    06:00 +16°C° 0 mm 2 mps 679 mmHg 46%
    07:00 +17°C° 0 mm 2 mps 679 mmHg 43%
    08:00 +19°C° 0 mm 3 mps 680 mmHg 38%
    09:00 +21°C° 0 mm 3 mps 680 mmHg 32%
    10:00 +22°C° 0 mm 4 mps 680 mmHg 27%
    11:00 +23°C° 0 mm 4 mps 680 mmHg 25%
    12:00 +25°C° 0 mm 4 mps 680 mmHg 22%
    13:00 +26°C° 0 mm 5 mps 679 mmHg 19%
    14:00 +26°C° 0 mm 5 mps 679 mmHg 20%
    15:00 +26°C° 0 mm 6 mps 679 mmHg 21%
    16:00 +26°C° 0 mm 6 mps 679 mmHg 22%
    17:00 +23°C° 0 mm 6 mps 679 mmHg 25%
    18:00 +22°C° 0 mm 5 mps 679 mmHg 29%
    19:00 +21°C° 0 mm 5 mps 679 mmHg 32%
    20:00 +20°C° 0 mm 4 mps 679 mmHg 33%
    21:00 +19°C° 0 mm 4 mps 679 mmHg 35%
    22:00 +18°C° 0 mm 3 mps 679 mmHg 37%
    23:00 +18°C° 0 mm 3 mps 679 mmHg 37%
    Show more